Change the Weather History Date:

Friday, December 14, 2012

  Actual Average Record
Temperature  
Mean Temperature 46 °F -  
Max Temperature 54 °F 40 °F 64 °F (2014)
Min Temperature 39 °F 25 °F 10 °F (2008)
Degree Days  
Heating Degree Days 18    
Moisture  
Dew Point 30 °F    
Average Humidity 54    
Maximum Humidity 87    
Minimum Humidity 40    
Precipitation  
Precipitation 0.23 in - - ()
Sea Level Pressure  
Sea Level Pressure 29.93 in    
Wind  
Wind Speed 8 mph (South)    
Max Wind Speed 20 mph    
Max Gust Speed 31 mph    
Visibility 9 miles    
Events Rain , Thunderstorm    
Averages and records for this station are not official NWS values.
T = Trace of Precipitation, MM = Missing Value Source: NWS Daily Summary

Daily Weather History Graph

Daily Weather History Graph

Search for Another Location

Airport or City:

Trip Planner

Search our weather history database for the weather conditions in past years. The results will help you decide how hot, cold, wet, or windy it might be!

Date:

Astronomy

Dec. 14, 2012 Rise Set
Actual Time 7:30 AM CST 4:56 PM CST
Civil Twilight 7:00 AM CST 5:26 PM CST
Nautical Twilight 6:26 AM CST 6:00 PM CST
Astronomical Twilight 5:53 AM CST 6:32 PM CST
Moon 8:36 AM CST (12/14) 6:49 PM CST (12/14)
Length of Visible Light 10h 26m
Length of Day
9h 26m
Waxing Crescent, 3% of the Moon is Illuminated
Dec 14
Waxing Crescent
Dec 19
First Quarter
Dec 28
Full
Jan 4
Last Quarter
Jan 11
New

Hourly Weather History & Observations

Time (CST) Temp. Windchill Dew Point Humidity Pressure Visibility Wind Dir Wind Speed Gust Speed Precip Events Conditions
12:54 AM 44.1 °F 41.5 °F 24.1 °F 45% 30.12 in 10.0 mi SW 4.6 mph - N/A   Clear
1:54 AM 42.1 °F 39.2 °F 24.1 °F 49% 30.10 in 10.0 mi SSW 4.6 mph - N/A   Clear
2:54 AM 39.9 °F 35.8 °F 24.1 °F 53% 30.10 in 10.0 mi SSW 5.8 mph - N/A   Clear
3:54 AM 39.9 °F 36.7 °F 24.1 °F 53% 30.09 in 10.0 mi South 4.6 mph - N/A   Clear
4:54 AM 39.9 °F 35.8 °F 24.1 °F 53% 30.08 in 10.0 mi SSW 5.8 mph - N/A   Clear
5:54 AM 41.0 °F 35.8 °F 24.1 °F 51% 30.08 in 10.0 mi South 8.1 mph - N/A   Clear
6:54 AM 42.1 °F 37.1 °F 24.1 °F 49% 30.09 in 10.0 mi South 8.1 mph - N/A   Clear
7:54 AM 41.0 °F 35.8 °F 24.1 °F 51% 30.09 in 10.0 mi South 8.1 mph - N/A   Clear
8:54 AM 43.0 °F 38.2 °F 24.1 °F 47% 30.06 in 10.0 mi South 8.1 mph - N/A   Clear
9:54 AM 46.9 °F - 25.0 °F 42% 30.07 in 10.0 mi South 8.1 mph - N/A   Clear
10:54 AM 48.9 °F - 26.1 °F 41% 30.05 in 10.0 mi South 5.8 mph - N/A   Clear
11:54 AM 50.0 °F - 27.0 °F 41% 30.02 in 10.0 mi South 9.2 mph - N/A   Overcast
12:54 PM 51.1 °F - 28.0 °F 41% 29.98 in 10.0 mi South 9.2 mph - N/A   Overcast
1:54 PM 52.0 °F - 28.9 °F 41% 29.95 in 10.0 mi South 8.1 mph - N/A   Overcast
2:54 PM 52.0 °F - 28.9 °F 41% 29.92 in 10.0 mi South 12.7 mph 18.4 mph N/A   Overcast
3:54 PM 53.6 °F - 30.2 °F 41% 29.91 in 10.0 mi South 9.2 mph - N/A   Overcast
4:54 PM 52.0 °F - 35.1 °F 53% 29.88 in 10.0 mi SSE 6.9 mph - N/A   Overcast
5:54 PM 53.1 °F - 30.0 °F 41% 29.87 in 10.0 mi SSE 9.2 mph - N/A   Overcast
6:54 PM 54.0 °F - 30.9 °F 41% 29.86 in 10.0 mi South 10.4 mph - N/A   Overcast
7:54 PM 54.0 °F - 30.0 °F 40% 29.85 in 10.0 mi SSE 8.1 mph 21.9 mph N/A   Overcast
8:54 PM 52.0 °F - 30.0 °F 43% 29.80 in 10.0 mi SSE 10.4 mph 20.7 mph N/A   Mostly Cloudy
9:28 PM 51.8 °F - 33.8 °F 50% 29.78 in 10.0 mi South 11.5 mph 21.9 mph N/A   Overcast
9:54 PM 51.1 °F - 37.9 °F 61% 29.78 in 10.0 mi SSE 19.6 mph 27.6 mph 0.00 in Rain Light Rain
10:09 PM 48.2 °F - 39.2 °F 71% 29.75 in 8.0 mi SSE 16.1 mph 28.8 mph 0.00 in Rain , Thunderstorm Light Thunderstorms and Rain
10:24 PM 46.4 °F 42.9 °F 41.0 °F 81% 29.75 in 4.0 mi South 6.9 mph 31.1 mph 0.03 in Rain Rain
10:54 PM 45.0 °F 39.7 °F 41.0 °F 86% 29.74 in 6.0 mi SSE 10.4 mph 18.4 mph 0.08 in Rain Rain
11:06 PM 44.6 °F 38.8 °F 41.0 °F 87% 29.73 in 4.0 mi SSE 11.5 mph 17.3 mph 0.03 in Rain Rain
11:21 PM 44.6 °F 43.1 °F 41.0 °F 87% 29.72 in 3.0 mi Variable 3.5 mph - 0.06 in Rain Rain
11:54 PM 45.0 °F 40.1 °F 41.0 °F 86% 29.73 in 4.0 mi ESE 9.2 mph 19.6 mph 0.15 in Rain Light Rain